Location: M�nchen Volkssternwarte
(48.1219°N, 11.6071°E)
Time: 04:34:50
(UTC+01:00)

ISS - Visible Passes

Search period start: 25 March 2019 00:00
Search period end: 04 April 2019 01:00
Orbit: 408 x 411 km, 51.6° (Epoch: 25 March)

Date Brightness Start Highest point End Pass type
(mag) Time Alt. Az. Time Alt. Az. Time Alt. Az.
25 Mar -3.5 20:17:24 10° W 20:20:41 64° NNW 20:21:38 41° NE visible
25 Mar -0.3 21:54:24 10° WNW 21:54:24 10° WNW 21:54:24 10° WNW visible
26 Mar -3.8 19:26:44 10° WSW 19:30:03 87° NNW 19:33:15 11° ENE visible
26 Mar -2.2 21:03:41 10° WNW 21:06:02 35° NW 21:06:02 35° NW visible
27 Mar -3.0 20:12:55 10° W 20:16:08 47° N 20:17:33 27° NE visible
27 Mar -0.6 21:49:49 10° WNW 21:50:19 13° WNW 21:50:19 13° WNW visible
28 Mar -3.2 19:22:09 10° W 19:25:25 56° NNW 19:28:40 10° ENE visible
28 Mar -2.5 20:59:08 10° WNW 21:01:45 40° NNW 21:01:45 40° NNW visible
29 Mar -2.9 20:08:23 10° WNW 20:11:34 43° N 20:13:09 24° ENE visible
29 Mar -0.8 21:45:07 10° WNW 21:45:55 16° WNW 21:45:55 16° WNW visible
30 Mar -2.9 19:17:37 10° W 19:20:48 44° N 19:24:00 10° ENE visible
30 Mar -3.1 20:54:27 10° WNW 20:57:16 51° NNW 20:57:16 51° NNW visible
31 Mar -3.1 21:03:44 10° WNW 21:06:58 48° N 21:08:35 25° ENE visible
31 Mar -1.0 22:40:23 10° WNW 22:41:21 18° WNW 22:41:21 18° WNW visible
01 Apr -2.9 20:12:59 10° WNW 20:16:11 43° N 20:19:21 10° ENE visible
01 Apr -3.6 21:49:39 10° WNW 21:52:40 71° WNW 21:52:40 71° WNW visible
02 Apr -3.7 20:58:57 10° WNW 21:02:15 67° NNE 21:03:59 25° E visible
02 Apr -1.1 22:35:45 10° W 22:36:44 17° W 22:36:44 17° W visible
03 Apr -3.2 21:44:53 10° WNW 21:48:04 46° SSW 21:48:04 46° SSW visible
